Theta_e
352 350 362 361 360 361 363 364 366 368 366 363 362 363 363 364 364 363 361 361 362 361 359 357 357 358 359 358 356 355 354 355 354 352 354 354 354 354 353 352 352 349 354
355 350 362 361 360 361 363 364 368 367 365 363 362 364 363 363 362 362 361 361 361 361 359 358 360 360 358 357 356 355 355 355 354 354 355 355 354 354 353 354 352 353 354
354 351 353 361 360 361 363 364 367 366 365 363 364 363 363 363 362 361 362 360 361 361 358 357 359 357 356 357 356 355 356 355 355 355 356 348 346 356 355 355 354 352 353
354 350 352 360 361 361 362 363 366 366 365 364 364 364 363 363 362 360 361 360 361 362 359 356 356 355 354 353 354 355 356 356 356 356 348 341 342 361 358 357 356 355 353
354 351 358 361 361 360 361 362 364 366 365 365 365 364 364 363 363 362 362 361 360 361 360 358 356 355 355 354 354 353 354 353 353 352 342 340 341 357 362 361 358 358 357
351 356 359 360 359 359 359 360 362 363 364 364 364 364 363 362 363 362 362 360 359 360 360 358 357 356 355 354 354 353 352 352 352 344 342 342 343 359 359 360 359 360 360
348 358 354 360 358 358 358 357 358 360 362 363 363 360 360 360 360 358 358 357 358 359 359 358 357 357 356 355 354 354 354 352 346 340 337 341 342 355 357 356 356 359 360
347 355 353 358 358 357 357 357 357 358 358 359 360 360 359 358 357 358 358 357 357 357 357 358 359 359 358 357 356 355 355 350 343 338 336 337 350 352 351 350 353 354 359
349 352 354 351 355 357 357 357 358 358 358 357 358 357 357 356 356 356 356 357 357 357 357 357 359 359 358 357 357 357 356 351 340 336 334 334 352 353 352 349 350 357 359
349 350 352 354 352 350 348 357 357 357 357 357 357 357 357 357 357 356 357 356 356 356 356 358 358 358 358 357 357 356 355 352 344 340 337 335 355 354 351 349 349 358 360
347 348 349 348 351 350 349 354 356 357 357 356 356 357 355 347 349 350 352 354 357 358 357 358 358 357 357 356 356 356 353 343 340 338 338 344 352 354 352 350 350 351 359
343 345 349 349 349 348 347 359 358 353 351 351 350 354 354 349 350 348 354 357 357 357 357 357 357 357 356 344 342 353 346 338 335 335 336 349 355 355 352 351 351 352 351
342 347 352 352 353 349 352 351 348 350 352 354 354 354 354 350 347 346 345 348 351 354 349 351 350 348 343 340 339 340 343 344 341 334 335 354 354 355 354 353 352 352 351
339 345 350 353 354 356 353 351 350 347 353 354 355 358 364 352 352 348 346 347 349 346 349 348 344 349 348 347 342 340 339 340 340 337 336 356 354 354 354 353 352 351 351
338 344 346 350 349 349 350 347 349 349 342 343 343 349 352 351 351 349 349 346 342 341 341 341 341 343 341 341 341 342 341 341 341 342 343 355 351 352 352 352 351 352 352
338 337 342 345 349 348 353 352 348 347 351 348 343 340 350 350 348 345 346 344 343 342 341 340 340 342 341 340 341 342 344 343 342 346 344 347 352 351 352 352 353 353 353
336 338 337 343 349 349 349 351 351 349 350 350 344 347 347 346 349 350 344 344 346 347 346 345 344 345 341 343 345 341 340 342 343 347 352 352 348 351 352 353 354 353 353
335 337 340 337 339 344 344 344 343 345 348 347 347 346 346 345 346 349 348 346 343 344 344 343 344 343 340 344 343 348 345 347 346 349 349 346 353 347 352 353 352 353 353
335 336 336 339 337 337 340 337 338 345 342 343 343 346 347 346 346 347 349 346 351 343 341 340 339 341 339 338 339 345 346 345 347 350 350 349 350 348 347 352 351 351 352
333 335 335 334 335 338 333 334 330 330 332 334 336 338 344 340 340 344 344 346 342 341 345 343 339 339 337 337 336 335 341 347 348 348 349 350 344 346 349 351 353 350 349
332 333 333 332 336 332 327 325 324 323 326 326 328 334 336 335 336 341 338 345 343 337 338 342 342 338 337 339 337 333 335 342 343 342 344 345 344 344 347 347 350 351 346
330 331 332 332 334 332 328 329 328 327 324 326 327 336 340 336 339 338 341 338 341 341 337 334 334 336 338 343 332 333 327 329 337 341 342 340 338 340 340 338 343 342 343
330 331 329 330 332 332 333 330 329 329 325 322 324 325 332 332 335 339 339 338 341 341 339 336 336 331 328 335 337 331 326 321 331 340 341 341 343 341 339 344 343 339 339
324 330 328 330 330 330 333 332 334 323 321 323 323 325 330 333 331 332 336 337 338 342 337 337 338 334 332 327 329 333 337 333 326 320 328 332 335 333 332 335 336 337 340
323 324 330 331 330 330 331 332 326 327 323 322 322 328 331 331 333 330 329 331 334 331 335 335 335 334 335 332 330 331 329 329 329 324 321 326 328 332 334 331 333 335 339
321 322 326 326 329 331 329 329 330 326 325 321 323 321 320 321 322 323 322 325 328 331 332 334 335 334 333 332 329 328 326 326 323 323 321 323 320 322 324 329 332 331 335
Wind_Speed
16 17 12 11 9 9 8 8 11 12 13 13 12 12 12 11 12 12 12 12 11 11 10 10 10 9 8 7 5 2 1 4 7 9 8 7 7 7 5 4 6 7 14
21 17 12 11 10 8 7 7 10 12 12 13 12 11 11 11 11 11 11 11 11 10 10 9 8 8 6 5 4 4 4 6 6 7 5 7 5 5 4 4 2 8 10
19 17 15 10 10 9 8 7 9 11 12 13 12 11 12 12 13 12 11 10 10 9 8 7 7 6 6 5 5 6 6 6 6 6 7 10 13 14 9 6 4 3 6
14 14 15 11 9 9 8 7 8 10 11 12 12 13 13 12 12 12 11 10 10 8 7 6 7 6 5 5 5 6 7 7 6 7 9 11 12 20 16 10 7 6 5
13 13 16 11 10 10 9 8 8 10 11 11 11 12 12 12 11 11 10 9 9 8 7 6 6 6 5 5 5 5 5 6 7 9 13 14 10 18 16 14 12 11 9
14 17 15 11 9 8 8 8 8 9 11 12 12 12 12 12 11 10 10 9 8 7 7 7 7 7 7 7 6 7 7 8 9 13 14 16 7 14 12 12 12 11 12
12 18 15 11 10 8 7 6 6 6 8 9 10 11 11 9 8 8 6 7 8 8 9 9 8 8 8 8 9 9 10 11 12 15 16 14 14 18 17 13 11 13 13
11 14 15 13 11 9 8 8 7 5 5 5 6 7 6 7 8 7 8 8 7 8 8 9 8 8 8 8 9 10 11 12 13 15 17 16 11 18 14 11 9 12 17
10 15 12 12 10 9 9 9 9 8 7 7 7 6 7 6 7 7 8 9 10 10 10 11 10 10 10 10 10 11 12 14 15 13 16 13 9 16 15 11 7 11 16
8 12 16 12 12 10 11 9 8 9 9 8 8 9 10 10 10 11 9 12 13 12 12 11 10 10 10 11 11 12 14 16 16 17 14 13 14 14 11 10 8 10 15
4 8 11 9 17 12 15 13 10 8 6 6 8 10 9 10 14 14 16 14 18 15 14 14 13 13 13 14 15 17 17 11 16 13 12 17 15 17 17 14 11 11 13
10 4 2 4 5 4 2 15 12 12 10 10 10 11 10 12 11 8 3 9 11 15 15 16 16 16 15 13 12 23 11 15 14 14 12 16 17 16 13 12 12 14 15
17 15 3 8 4 4 7 3 4 6 9 7 3 7 8 11 10 9 8 10 12 18 12 16 15 14 18 15 14 13 16 16 11 10 16 14 18 17 15 15 14 15 16
4 10 10 12 10 8 9 11 5 5 7 4 5 6 4 9 8 8 6 6 5 5 11 11 10 15 17 18 18 18 18 14 10 9 13 17 16 16 15 13 14 17 19
15 16 18 16 11 6 5 5 10 13 7 9 8 14 9 9 8 9 9 10 10 11 11 12 12 10 12 14 15 14 16 15 17 10 8 15 18 16 16 17 17 19 21
16 16 14 11 5 5 6 7 4 1 4 3 5 9 12 8 8 9 9 12 12 12 12 12 12 11 12 15 14 15 14 15 15 17 12 10 15 18 18 18 18 20 22
14 15 16 16 13 10 7 7 5 5 3 6 6 9 10 10 10 12 12 12 12 11 9 7 7 8 7 11 14 14 14 17 15 17 9 5 6 14 18 20 21 21 22
15 16 15 14 14 12 9 7 6 5 2 3 4 5 10 12 11 10 10 11 9 5 7 8 10 10 9 7 11 11 12 12 16 11 13 8 9 12 14 20 19 19 20
14 14 15 14 14 12 7 6 5 2 5 7 5 4 7 10 12 8 9 10 9 4 5 7 10 11 11 11 11 13 11 12 14 12 14 14 14 11 8 12 17 18 15
12 13 13 13 14 12 10 10 10 10 10 9 8 7 10 9 13 12 11 11 9 9 10 9 11 11 12 12 13 11 10 10 11 11 12 10 10 9 7 6 4 6 13
11 12 12 12 12 11 9 10 11 11 11 10 8 9 12 11 12 12 10 9 8 6 9 13 9 9 11 11 9 13 12 13 15 14 10 9 13 10 8 5 3 4 7
9 9 10 11 9 10 10 8 9 10 11 11 10 11 9 11 13 12 11 10 8 9 8 7 9 10 9 9 7 10 9 10 9 12 12 11 14 11 13 10 10 7 7
5 7 8 8 10 8 10 9 9 9 11 11 12 12 14 16 14 12 14 12 8 6 8 9 7 9 6 7 10 6 4 6 5 3 9 8 13 8 10 10 8 9 5
4 7 4 7 9 10 11 10 12 11 13 10 12 13 14 15 13 14 12 13 13 6 9 9 8 7 6 8 6 8 12 8 6 3 1 4 6 4 7 3 7 7 11
5 6 6 5 8 9 12 12 12 13 12 12 13 15 14 14 16 16 20 18 14 11 12 11 10 9 9 7 7 6 7 6 8 9 9 4 2 2 2 3 3 3 8
12 11 9 7 9 7 11 13 14 16 17 15 16 15 15 15 14 16 18 17 16 15 14 11 11 11 9 9 6 7 8 7 2 5 8 6 7 3 3 4 2 3 3
Wind_Direction
109 126 131 138 134 128 131 149 167 160 154 151 157 153 149 142 139 141 141 142 147 150 154 157 166 177 198 217 240 276 124 59 74 78 78 88 105 114 125 175 195 178 127
106 136 133 135 139 128 119 130 156 157 154 154 157 152 149 146 146 147 150 155 160 159 158 160 167 176 189 185 167 138 131 120 122 127 143 155 147 153 173 232 266 92 125
108 129 142 132 137 130 124 129 138 147 152 153 155 153 155 157 158 159 158 162 168 166 161 159 166 167 169 158 144 139 139 153 157 169 201 230 180 178 188 219 235 145 148
115 136 133 131 136 134 126 128 124 140 152 152 154 159 160 163 164 166 164 170 177 176 172 170 173 178 174 156 155 165 171 176 186 202 221 235 244 167 173 194 228 223 202
125 139 116 132 139 144 138 135 131 137 142 147 152 158 163 164 167 171 169 176 184 188 189 192 192 193 193 189 186 189 205 206 210 226 248 242 244 164 168 178 204 221 220
119 116 128 129 135 144 145 140 141 141 137 145 154 159 164 168 171 171 171 175 191 205 212 215 213 211 208 205 208 209 213 225 230 235 241 259 269 140 165 183 215 249 206
115 108 138 134 139 143 142 134 133 143 139 148 156 166 166 165 164 177 174 186 201 214 220 224 228 224 223 217 216 216 219 225 241 247 247 229 242 151 168 184 209 233 238
112 119 135 141 147 148 147 150 143 134 130 141 152 162 173 183 185 184 186 197 217 232 239 239 239 237 233 226 226 225 225 230 238 248 270 271 172 160 172 182 204 234 232
130 115 148 160 155 159 161 159 153 148 150 154 153 158 160 173 181 193 201 213 219 228 238 239 239 238 236 235 236 242 239 242 255 255 252 244 180 167 172 176 209 239 228
128 127 142 165 171 185 169 173 175 174 173 171 176 183 188 194 197 198 206 215 220 226 237 245 247 248 251 249 244 238 240 249 254 262 256 260 163 161 164 182 206 239 224
54 127 127 172 158 193 179 163 174 186 195 200 206 209 202 230 202 214 213 218 203 214 226 235 238 239 239 240 240 238 240 247 248 243 247 254 191 174 176 180 196 231 236
44 107 65 136 100 185 149 146 194 185 205 210 219 205 229 230 240 254 133 189 189 213 224 231 236 234 233 246 236 221 227 238 242 251 251 243 182 176 174 186 204 227 236
24 343 200 118 72 342 26 285 231 209 201 183 264 278 252 273 226 214 232 202 214 213 230 215 226 229 239 236 238 243 216 223 232 238 255 217 175 177 185 200 211 227 239
139 359 19 79 80 29 30 338 302 263 32 43 3 300 322 280 277 284 287 280 248 255 211 233 231 219 216 227 235 239 247 242 233 229 237 169 176 179 191 208 222 232 236
45 42 50 40 30 330 89 116 4 8 16 22 347 305 242 258 257 266 256 257 252 251 247 244 245 258 268 257 259 266 267 266 276 267 249 188 175 179 195 211 229 239 239
43 48 43 68 44 12 9 20 37 21 298 179 239 230 265 260 281 286 274 260 263 266 263 264 252 249 247 255 255 250 257 262 254 266 258 247 182 194 199 211 224 241 245
59 45 53 68 57 39 22 351 344 345 311 274 268 326 308 295 283 283 282 283 291 282 297 307 298 297 285 269 257 259 256 253 250 252 252 251 217 216 196 213 218 228 238
46 56 45 37 65 55 32 22 359 20 288 222 278 291 277 269 272 275 277 286 300 344 314 300 300 306 287 272 276 289 280 272 273 275 252 241 236 263 207 214 221 231 232
54 42 37 32 27 14 29 4 5 17 310 333 318 247 261 292 288 280 280 282 290 254 244 261 265 260 259 264 262 244 246 256 269 274 272 258 256 250 252 208 209 226 232
47 38 40 29 14 357 9 3 359 347 343 333 330 332 317 314 309 305 306 297 281 276 270 253 250 253 260 263 260 271 237 227 241 246 249 250 263 257 289 293 237 233 223
50 41 27 26 15 357 9 360 356 348 342 341 324 339 331 303 327 315 299 301 293 288 293 295 261 254 251 253 261 260 265 254 234 242 227 223 243 250 246 260 287 287 274
43 38 29 17 15 8 357 6 357 335 334 327 339 324 302 347 318 312 315 300 291 290 280 269 273 272 266 253 244 252 262 256 253 229 230 233 246 240 245 220 222 238 260
29 31 28 11 352 17 1 5 357 342 343 347 334 336 357 328 310 302 313 303 281 275 281 288 281 271 287 290 271 254 268 242 275 225 245 246 252 241 245 220 183 174 197
4 103 25 15 5 9 4 351 347 352 345 334 334 341 329 306 328 327 300 314 317 306 271 278 266 262 261 265 286 245 240 261 272 276 219 250 244 269 303 196 196 197 149
22 57 106 25 4 5 0 3 349 354 342 329 335 330 315 345 325 6 357 343 332 319 314 293 291 293 289 279 288 290 263 257 245 252 265 177 139 152 307 306 243 231 170
10 6 4 9 350 26 2 359 358 2 341 340 348 337 346 334 342 343 350 327 322 320 314 311 312 305 303 301 302 291 281 282 238 236 236 216 158 101 16 313 163 166 100